Weather in Predtechensk

Russia / Tomsk District     56°24′48″N   85°02′44″E
temp.,
°C
wind,
m/s
gust,
m/s
humid.,
%
clouds,
%
prec.,
mm/h
press.,
hPa
HPBL,
m
20 january, wed
wed2001:00−27w2399100 0.1 102368
04:00−30w1210073 0.0 102619
07:00−32sw119968 0.0 102919
10:00−33ssw119960 0.0 102919
13:00−27sw119330 0.0 1031177
16:00−27s119564 0.0 103148
19:00−31sse119732 0.0 103219
22:00−30ese12949 0.0 103019
21 january, thu
thu2101:00−29e229431 0.0 102934
04:00−26ese3691100 0.0 1026234
07:00−24e3691100 0.0 1024242
10:00−23e3796100 0.1 1021233
13:00−20se2496100 0.3 1019245
16:00−16s2594100 0.1 1017347
19:00−17s2398100 0.2 101679
22:00−19ssw2499100 0.1 101586
22 january, fri
fri2201:00−19ssw2398100 0.1 101469
04:00−19s2297100 0.0 101247
07:00−18ssw1198100 0.1 101021
10:00−17ssw1197100 0.5 100962
13:00−16w2393100 0.9 1009314
16:00−16w2595100 0.1 1010391
19:00−20wsw2399100 0.1 101255
22:00−24wsw239993 0.0 101549
23 january, sat
sat2301:00−27sw239893 0.0 101871
04:00−26ssw3697100 0.0 1021202
07:00−25sw4896100 0.1 1022366
10:00−24sw4996100 0.1 1025472
13:00−23sw4894100 0.3 1027538
16:00−22sw3794100 0.1 1028558
19:00−23sw3798100 0.2 1029412
22:00−23sw3798100 0.1 1030305
24 january, sun
sun2401:00−24sw2399100 0.2 1030110
04:00−25sw2399100 0.1 1031105
07:00−26wnw2399100 0.2 1032117
10:00−29nw3598100 0.1 1035210
13:00−33nw2497100 0.1 1037266
16:00−34wnw249498 0.0 1039336
19:00−39w239771 0.0 104333
22:00−42w129752 0.0 104518